Location: Adamstown South Public School
(32.9318°S, 151.7012°E)
Time: 15:07:00
(UTC+00:00)

Cosmos 405 Rocket - Pass Details

Date: 07 June 2020
Orbit: 489 x 555 km, 81.3° (Epoch: 04 July)

Event Time Altitude Azimuth Distance (km) Brightness Sun altitude
Rises 07:57:13 0° 6° (N) 2,579 6.4 -13.2°
Reaches altitude 10° 07:59:23 10° 13° (NNE) 1,697 5.4 -13.6°
Maximum altitude 08:02:56 44° 86° (E) 695 2.9 -14.3°
Enters shadow 08:05:20 19° 151° (SSE) 1,255 4.2 -14.8°
